Date,TemperatureHighF,TemperatureAvgF,TemperatureLowF,DewpointHighF,DewpointAvgF,DewpointLowF,HumidityHigh,HumidityAvg,HumidityLow,PressureMaxIn,PressureMinIn,WindSpeedMaxMPH,WindSpeedAvgMPH,GustSpeedMaxMPH,PrecipitationSumIn
2013-6-5,64.8,58.7,55.5,51.0,42.6,-99.9,82,62,55,30.15,0.00,6,-40,12,0.00
2013-6-6,63.7,58.3,51.0,53.0,50.6,48.0,91,76,62,30.22,30.12,7,1,11,0.00
2013-6-7,69.3,61.4,52.0,54.0,50.3,46.0,90,69,51,30.26,30.22,6,1,11,0.00
2013-6-8,68.6,61.3,52.9,55.0,51.2,47.0,84,70,53,30.25,30.08,6,1,9,0.00
2013-6-9,57.9,54.3,51.6,51.0,49.2,47.0,86,83,74,30.08,30.01,3,0,8,0.00
2013-6-10,65.7,59.2,51.6,52.0,48.7,46.0,83,69,52,29.91,29.79,11,3,17,0.00
2013-6-11,65.8,56.9,51.9,60.0,53.3,49.0,94,88,79,29.79,29.61,9,4,18,0.25
2013-6-12,62.8,56.4,53.9,54.0,52.0,49.0,95,85,63,29.68,29.51,6,2,10,0.13
2013-6-13,62.8,56.3,49.9,53.0,49.3,43.0,95,79,52,29.87,29.51,11,2,22,0.10
2013-6-14,61.9,54.6,50.2,51.0,46.2,-99.9,92,76,56,29.87,29.37,14,-8,30,0.24
2013-6-15,65.7,56.0,48.0,52.0,46.3,42.0,86,71,45,29.70,29.47,14,6,21,0.24
2013-6-16,54.0,52.9,52.1,50.0,48.8,48.0,90,86,82,29.75,29.70,15,3,16,0.02
2013-6-17,62.4,58.6,53.2,55.0,52.9,51.0,93,81,71,30.00,29.97,6,1,9,0.09
2013-6-18,68.1,59.9,49.7,56.0,52.3,48.0,92,77,61,29.98,29.92,7,1,10,0.09
2013-6-19,69.1,60.4,54.0,53.0,49.1,46.0,82,67,47,30.04,29.97,8,2,11,0.00
2013-6-20,62.5,56.7,54.5,53.0,48.1,-99.9,84,77,62,30.00,29.83,10,-17,14,0.00
2013-6-21,68.1,61.1,56.9,55.0,49.1,-99.9,81,68,50,29.82,0.00,8,-14,14,0.02
2013-6-22,62.8,58.3,53.9,54.0,51.0,48.0,88,77,66,29.56,29.38,16,5,24,0.21
2013-6-23,55.9,55.8,55.6,52.0,51.1,51.0,85,84,83,29.59,29.56,11,4,15,0.00
2013-6-24,64.3,58.6,54.1,49.0,43.9,-99.9,80,62,50,30.26,30.20,5,-16,10,0.00
2013-6-25,61.4,55.8,51.3,52.0,49.2,47.0,86,79,69,30.33,30.26,2,0,3,0.00